• în Republica Moldova
  • Lista ţărilor
  • Pe 7 zile
  • Temperatura apei
  • Hartă satelitară
  • Meteo pe hartă
  • Widget-uri
  • user-avatar
    Intrare

    Meteo pe oră la Perth

    Astăzi, 27 Mai, Duminică

    Timp Temperatura Precipitaţii Vânt Presiune Umiditate
    00:00 +15°C° 0,1 mm 4 m/s 759 mmHg 84%
    01:00 +15°C° 0,1 mm 4 m/s 759 mmHg 84%
    02:00 +16°C° 0 mm 5 m/s 759 mmHg 85%
    03:00 +16°C° 0,1 mm 5 m/s 759 mmHg 84%
    04:00 +16°C° 0,1 mm 5 m/s 759 mmHg 84%
    05:00 +17°C° 0,1 mm 5 m/s 759 mmHg 83%
    06:00 +17°C° 0,1 mm 5 m/s 759 mmHg 82%
    07:00 +17°C° 0,1 mm 6 m/s 759 mmHg 82%
    08:00 +17°C° 0 mm 5 m/s 760 mmHg 82%
    09:00 +19°C° 0,2 mm 6 m/s 760 mmHg 78%
    10:00 +20°C° 0,2 mm 7 m/s 760 mmHg 74%
    11:00 +20°C° 0,2 mm 8 m/s 760 mmHg 70%
    12:00 +21°C° 0,2 mm 8 m/s 760 mmHg 69%
    13:00 +21°C° 0,2 mm 8 m/s 760 mmHg 67%
    14:00 +21°C° 0 mm 8 m/s 759 mmHg 66%
    15:00 +21°C° 0,3 mm 8 m/s 759 mmHg 69%
    16:00 +20°C° 0,3 mm 7 m/s 760 mmHg 72%
    17:00 +18°C° 0,3 mm 7 m/s 760 mmHg 75%
    18:00 +17°C° 0,1 mm 6 m/s 761 mmHg 76%
    19:00 +17°C° 0,1 mm 6 m/s 761 mmHg 77%
    20:00 +16°C° 0 mm 5 m/s 762 mmHg 78%
    21:00 +15°C° 0 mm 5 m/s 762 mmHg 77%
    22:00 +15°C° 0 mm 5 m/s 763 mmHg 77%
    23:00 +14°C° 0 mm 5 m/s 763 mmHg 76%

    Mâine, 28 Mai, Luni

    Timp Temperatura Precipitaţii Vânt Presiune Umiditate
    00:00 +14°C° 0 mm 5 m/s 763 mmHg 75%
    01:00 +14°C° 0 mm 4 m/s 763 mmHg 75%
    02:00 +13°C° 0 mm 4 m/s 764 mmHg 74%
    03:00 +13°C° 0 mm 4 m/s 764 mmHg 74%
    04:00 +12°C° 0 mm 3 m/s 764 mmHg 74%
    05:00 +12°C° 0 mm 3 m/s 765 mmHg 74%
    06:00 +13°C° 0 mm 2 m/s 765 mmHg 73%
    07:00 +13°C° 0 mm 2 m/s 765 mmHg 72%
    08:00 +14°C° 0 mm 2 m/s 766 mmHg 70%
    09:00 +15°C° 0 mm 2 m/s 766 mmHg 65%
    10:00 +17°C° 0 mm 2 m/s 766 mmHg 59%
    11:00 +18°C° 0 mm 3 m/s 767 mmHg 54%
    12:00 +19°C° 0,1 mm 3 m/s 766 mmHg 54%
    13:00 +19°C° 0,1 mm 3 m/s 766 mmHg 55%
    14:00 +19°C° 0,1 mm 3 m/s 766 mmHg 56%
    15:00 +18°C° 0,1 mm 3 m/s 766 mmHg 60%
    16:00 +18°C° 0,1 mm 2 m/s 766 mmHg 64%
    17:00 +17°C° 0,1 mm 2 m/s 766 mmHg 69%
    18:00 +16°C° 0,1 mm 2 m/s 767 mmHg 73%
    19:00 +15°C° 0,1 mm 1 m/s 767 mmHg 76%
    20:00 +14°C° 0,1 mm 1 m/s 767 mmHg 80%
    21:00 +14°C° 0 mm 1 m/s 768 mmHg 81%
    22:00 +13°C° 0 mm 1 m/s 768 mmHg 81%
    23:00 +13°C° 0 mm 1 m/s 768 mmHg 82%

    Poimâine, 29 Mai, Marţi

    Timp Temperatura Precipitaţii Vânt Presiune Umiditate
    00:00 +13°C° 0 mm 1 m/s 768 mmHg 82%
    01:00 +13°C° 0 mm 2 m/s 768 mmHg 81%
    02:00 +13°C° 0 mm 2 m/s 768 mmHg 81%
    03:00 +12°C° 0 mm 2 m/s 767 mmHg 81%
    04:00 +12°C° 0 mm 2 m/s 767 mmHg 82%
    05:00 +12°C° 0 mm 2 m/s 767 mmHg 82%
    06:00 +12°C° 0 mm 2 m/s 768 mmHg 81%
    07:00 +13°C° 0 mm 2 m/s 768 mmHg 81%
    08:00 +13°C° 0 mm 2 m/s 768 mmHg 80%
    09:00 +14°C° 0 mm 3 m/s 768 mmHg 72%
    10:00 +17°C° 0 mm 3 m/s 768 mmHg 63%
    11:00 +19°C° 0 mm 3 m/s 768 mmHg 54%
    12:00 +20°C° 0 mm 3 m/s 768 mmHg 51%
    13:00 +20°C° 0 mm 2 m/s 767 mmHg 48%
    14:00 +21°C° 0 mm 2 m/s 767 mmHg 44%
    15:00 +20°C° 0 mm 2 m/s 767 mmHg 47%
    16:00 +20°C° 0 mm 1 m/s 766 mmHg 50%
    17:00 +19°C° 0 mm 1 m/s 766 mmHg 53%
    18:00 +18°C° 0 mm 1 m/s 767 mmHg 55%
    19:00 +16°C° 0 mm 1 m/s 767 mmHg 58%
    20:00 +15°C° 0 mm 2 m/s 767 mmHg 60%
    21:00 +15°C° 0 mm 2 m/s 767 mmHg 58%
    22:00 +15°C° 0 mm 2 m/s 767 mmHg 57%
    23:00 +13°C° 0 mm 3 m/s 767 mmHg 55%

    30 Mai, Miercuri

    Timp Temperatura Precipitaţii Vânt Presiune Umiditate
    00:00 +13°C° 0 mm 3 m/s 766 mmHg 54%
    01:00 +13°C° 0 mm 3 m/s 766 mmHg 53%
    02:00 +12°C° 0 mm 4 m/s 766 mmHg 51%
    03:00 +12°C° 0 mm 4 m/s 765 mmHg 50%
    04:00 +12°C° 0 mm 4 m/s 765 mmHg 48%
    05:00 +12°C° 0 mm 4 m/s 765 mmHg 46%
    06:00 +12°C° 0 mm 4 m/s 765 mmHg 45%
    07:00 +12°C° 0 mm 5 m/s 765 mmHg 44%
    08:00 +13°C° 0 mm 5 m/s 765 mmHg 44%
    09:00 +15°C° 0 mm 5 m/s 764 mmHg 40%
    10:00 +17°C° 0 mm 5 m/s 764 mmHg 37%
    11:00 +20°C° 0 mm 5 m/s 763 mmHg 34%
    12:00 +21°C° 0 mm 5 m/s 762 mmHg 32%
    13:00 +22°C° 0 mm 5 m/s 762 mmHg 31%
    14:00 +23°C° 0 mm 4 m/s 761 mmHg 30%
    15:00 +22°C° 0 mm 3 m/s 760 mmHg 34%
    16:00 +21°C° 0 mm 3 m/s 760 mmHg 38%
    17:00 +20°C° 0 mm 2 m/s 760 mmHg 42%
    18:00 +19°C° 0 mm 2 m/s 760 mmHg 45%
    19:00 +18°C° 0 mm 2 m/s 760 mmHg 47%
    20:00 +17°C° 0 mm 2 m/s 760 mmHg 50%
    21:00 +16°C° 0 mm 2 m/s 760 mmHg 50%
    22:00 +16°C° 0 mm 2 m/s 760 mmHg 50%
    23:00 +16°C° 0 mm 3 m/s 759 mmHg 51%

    31 Mai, Joi

    Timp Temperatura Precipitaţii Vânt Presiune Umiditate
    00:00 +16°C° 0 mm 3 m/s 759 mmHg 51%
    01:00 +16°C° 0 mm 3 m/s 759 mmHg 51%
    02:00 +14°C° 0 mm 3 m/s 758 mmHg 51%
    03:00 +15°C° 0 mm 4 m/s 758 mmHg 54%
    04:00 +15°C° 0 mm 4 m/s 758 mmHg 56%
    05:00 +15°C° 0 mm 4 m/s 758 mmHg 58%
    06:00 +15°C° 0 mm 4 m/s 758 mmHg 64%
    07:00 +17°C° 0 mm 4 m/s 759 mmHg 70%
    08:00 +17°C° 0 mm 4 m/s 759 mmHg 76%
    09:00 +18°C° 0,5 mm 4 m/s 759 mmHg 75%
    10:00 +19°C° 0,5 mm 5 m/s 760 mmHg 74%
    11:00 +20°C° 0,5 mm 5 m/s 760 mmHg 73%
    12:00 +20°C° 0,6 mm 5 m/s 760 mmHg 74%
    13:00 +19°C° 0,6 mm 4 m/s 759 mmHg 76%
    14:00 +19°C° 0,6 mm 4 m/s 759 mmHg 77%
    15:00 +19°C° 0 mm 4 m/s 760 mmHg 77%
    16:00 +18°C° 0 mm 4 m/s 760 mmHg 77%
    17:00 +17°C° 0 mm 3 m/s 761 mmHg 78%
    18:00 +17°C° 0 mm 3 m/s 761 mmHg 79%
    19:00 +16°C° 0 mm 3 m/s 762 mmHg 80%
    20:00 +14°C° 0 mm 3 m/s 762 mmHg 81%
    21:00 +13°C° 0 mm 3 m/s 762 mmHg 81%
    22:00 +14°C° 0 mm 2 m/s 763 mmHg 81%
    23:00 +13°C° 0 mm 2 m/s 763 mmHg 81%

    1 Iunie, Vineri

    Timp Temperatura Precipitaţii Vânt Presiune Umiditate
    00:00 +13°C° 0 mm 2 m/s 763 mmHg 81%
    01:00 +12°C° 0 mm 2 m/s 763 mmHg 80%
    02:00 +12°C° 0 mm 1 m/s 763 mmHg 80%
    03:00 +12°C° 0 mm 2 m/s 763 mmHg 80%
    04:00 +10°C° 0 mm 2 m/s 763 mmHg 80%
    05:00 +10°C° 0 mm 2 m/s 764 mmHg 80%
    06:00 +10°C° 0 mm 2 m/s 764 mmHg 79%
    07:00 +10°C° 0 mm 2 m/s 764 mmHg 77%
    08:00 +12°C° 0 mm 2 m/s 765 mmHg 76%
    09:00 +14°C° 0 mm 2 m/s 765 mmHg 67%
    10:00 +16°C° 0 mm 2 m/s 765 mmHg 58%
    11:00 +20°C° 0 mm 1 m/s 765 mmHg 49%
    12:00 +20°C° 0 mm 1 m/s 764 mmHg 48%
    13:00 +20°C° 0 mm 2 m/s 764 mmHg 46%
    14:00 +20°C° 0 mm 2 m/s 763 mmHg 45%
    15:00 +19°C° 0 mm 2 m/s 764 mmHg 50%
    16:00 +18°C° 0 mm 2 m/s 764 mmHg 54%
    17:00 +17°C° 0 mm 2 m/s 764 mmHg 59%
    18:00 +16°C° 0 mm 2 m/s 765 mmHg 65%
    19:00 +15°C° 0 mm 2 m/s 765 mmHg 70%
    20:00 +14°C° 0 mm 2 m/s 766 mmHg 76%
    21:00 +14°C° 0 mm 2 m/s 766 mmHg 78%
    22:00 +13°C° 0 mm 2 m/s 766 mmHg 80%
    23:00 +13°C° 0 mm 2 m/s 766 mmHg 82%
    Arată mai mult